Location: Moondance
(40.1328°N, 106.5113°W)
Time: 19:26:01
(UTC-07:00)

ISS - Visible Passes

Search period start: 21 February 2019 00:00
Search period end: 03 March 2019 00:00
Orbit: 403 x 411 km, 51.6° (Epoch: 22 February)

Date Brightness Start Highest point End Pass type
(mag) Time Alt. Az. Time Alt. Az. Time Alt. Az.
21 Feb -1.7 06:21:59 10° SSW 06:24:50 28° SE 06:27:41 10° ENE visible
22 Feb -0.9 05:31:36 10° SSE 05:33:34 15° SE 05:35:33 10° E visible
23 Feb -3.7 06:15:06 10° SW 06:18:20 78° SE 06:21:36 10° NE visible
24 Feb -2.6 05:24:41 16° SSW 05:26:56 38° SE 05:30:00 10° ENE visible
25 Feb -1.4 04:35:53 20° SE 04:35:53 20° SE 04:38:05 10° E visible
25 Feb -3.3 06:08:50 10° WSW 06:11:57 42° NNW 06:15:04 10° NE visible
26 Feb -4.0 05:19:38 48° WSW 05:20:25 78° NW 05:23:41 10° NE visible
27 Feb -1.6 04:30:29 26° ENE 04:30:29 26° ENE 04:32:08 10° ENE visible
27 Feb -2.3 06:03:12 11° WNW 06:05:39 23° NNW 06:08:19 10° NNE visible
28 Feb -3.0 05:13:55 34° NNW 05:14:00 34° NNW 05:17:01 10° NE visible
01 Mar -1.2 04:24:33 19° NE 04:24:33 19° NE 04:25:38 10° NE visible
01 Mar -1.6 05:57:28 10° NW 05:59:28 15° NNW 06:01:28 10° NNE visible
02 Mar -2.0 05:07:47 20° NNW 05:07:47 20° NNW 05:10:10 10° NNE visible
